TimeEST,TemperatureF,Dew PointF,Humidity,Sea Level PressureIn,VisibilityMPH,Wind Direction,Wind SpeedMPH,Gust SpeedMPH,PrecipitationIn,Events,Conditions,WindDirDegrees,DateUTC
12:53 AM,12.0,1.0,61,30.13,10.0,SE,8.1,-,N/A,,Clear,140,2014-02-13 05:53:00
1:53 AM,10.9,1.9,67,30.11,10.0,SE,8.1,-,N/A,,Clear,140,2014-02-13 06:53:00
2:53 AM,12.0,3.0,67,30.09,10.0,SE,6.9,-,N/A,,Clear,140,2014-02-13 07:53:00
3:53 AM,12.9,5.0,71,30.07,10.0,ESE,4.6,-,N/A,,Clear,120,2014-02-13 08:53:00
4:53 AM,12.9,6.1,74,30.03,10.0,ESE,4.6,-,N/A,,Clear,110,2014-02-13 09:53:00
5:53 AM,12.9,7.0,77,30.00,10.0,ESE,5.8,-,N/A,,Clear,110,2014-02-13 10:53:00
6:53 AM,14.0,7.0,74,29.99,10.0,NNE,3.5,-,N/A,,Clear,30,2014-02-13 11:53:00
7:53 AM,14.0,7.0,74,29.96,10.0,Calm,Calm,-,N/A,,Clear,0,2014-02-13 12:53:00
8:14 AM,15.1,8.1,74,29.85,10.0,Calm,Calm,-,N/A,,Mostly Cloudy,0,2014-02-13 13:14:00
8:45 AM,17.1,9.0,71,29.84,10.0,Calm,Calm,-,N/A,,Mostly Cloudy,0,2014-02-13 13:45:00
8:53 AM,17.1,9.0,71,29.94,10.0,NE,3.5,-,N/A,,Overcast,40,2014-02-13 13:53:00
9:01 AM,17.1,9.0,71,29.83,10.0,Variable,3.5,-,N/A,,Overcast,0,2014-02-13 14:01:00
9:53 AM,18.0,10.0,71,29.92,10.0,NNE,3.5,-,N/A,,Overcast,20,2014-02-13 14:53:00
10:28 AM,19.9,12.0,71,29.80,10.0,NE,3.5,-,N/A,,Overcast,50,2014-02-13 15:28:00
10:53 AM,21.0,12.9,71,29.89,10.0,ENE,5.8,-,N/A,,Overcast,60,2014-02-13 15:53:00
11:31 AM,21.9,14.0,72,29.77,10.0,Variable,4.6,-,N/A,,Overcast,0,2014-02-13 16:31:00
11:53 AM,21.9,15.1,75,29.85,9.0,East,5.8,-,N/A,,Overcast,80,2014-02-13 16:53:00
12:01 PM,21.9,15.1,75,29.75,9.0,East,6.9,-,N/A,,Overcast,90,2014-02-13 17:01:00
12:22 PM,23.0,16.0,74,29.73,5.0,East,6.9,-,0.00,Snow,Light Snow,80,2014-02-13 17:22:00
12:34 PM,24.1,17.1,75,29.72,3.0,East,6.9,-,0.00,Snow,Light Snow,80,2014-02-13 17:34:00
12:38 PM,24.1,17.1,75,29.71,2.5,East,6.9,-,0.00,Snow,Light Snow,90,2014-02-13 17:38:00
12:43 PM,24.1,17.1,75,29.71,1.8,East,4.6,-,0.00,Snow,Light Snow,90,2014-02-13 17:43:00
12:50 PM,24.8,17.6,74,29.70,3.0,ENE,8.1,-,0.00,Snow,Light Snow,70,2014-02-13 17:50:00
12:53 PM,24.1,17.1,75,29.79,3.0,East,8.1,-,0.00,Snow,Light Snow,80,2014-02-13 17:53:00
12:58 PM,24.1,18.0,77,29.69,1.8,East,3.5,-,0.00,Snow,Light Snow,90,2014-02-13 17:58:00
1:32 PM,25.0,18.0,75,29.67,2.5,NE,3.5,-,0.00,Snow,Light Snow,50,2014-02-13 18:32:00
1:49 PM,24.8,17.6,74,29.66,1.8,ENE,9.2,-,0.00,Snow,Light Snow,70,2014-02-13 18:49:00
1:53 PM,25.0,18.0,75,29.75,1.8,ENE,5.8,-,0.00,Snow,Light Snow,70,2014-02-13 18:53:00
2:53 PM,26.1,19.9,78,29.70,1.2,NNE,4.6,-,0.00,Snow,Light Snow,20,2014-02-13 19:53:00
3:05 PM,26.1,19.9,78,29.60,1.8,NNE,6.9,-,0.00,Snow,Light Snow,20,2014-02-13 20:05:00
3:14 PM,26.1,19.9,78,29.59,2.5,North,6.9,-,0.00,Snow,Light Snow,10,2014-02-13 20:14:00
3:25 PM,26.1,19.9,78,29.58,3.0,North,5.8,-,0.00,Snow,Light Snow,10,2014-02-13 20:25:00
3:53 PM,25.0,19.9,81,29.64,7.0,North,6.9,-,0.00,Snow,Light Snow,350,2014-02-13 20:53:00
4:53 PM,25.0,19.9,81,29.62,2.5,North,6.9,-,0.00,Snow,Light Snow,10,2014-02-13 21:53:00
5:11 PM,25.0,19.9,81,29.54,1.2,North,6.9,-,0.00,Snow,Light Snow,350,2014-02-13 22:11:00
5:23 PM,25.0,19.9,81,29.54,1.0,North,8.1,-,0.00,Snow,Light Snow,350,2014-02-13 22:23:00
5:38 PM,24.1,19.9,84,29.53,0.8,North,9.2,-,0.00,Snow,Light Snow,350,2014-02-13 22:38:00
5:46 PM,24.1,19.9,84,29.53,1.5,NNW,9.2,-,0.00,Snow,Light Snow,340,2014-02-13 22:46:00
5:53 PM,24.1,19.9,84,29.61,1.5,North,10.4,-,0.00,Snow,Light Snow,350,2014-02-13 22:53:00
6:53 PM,24.1,19.9,84,29.60,1.5,NNW,11.5,-,0.00,Snow,Light Snow,340,2014-02-13 23:53:00
7:53 PM,24.1,19.9,84,29.58,1.5,North,8.1,-,0.01,Snow,Light Snow,350,2014-02-14 00:53:00
8:25 PM,23.0,19.9,88,29.48,1.8,NNW,5.8,-,0.00,Snow,Light Snow,340,2014-02-14 01:25:00
8:41 PM,23.0,19.9,88,29.48,2.0,NNW,8.1,-,0.00,Snow,Light Snow,340,2014-02-14 01:41:00
8:53 PM,23.0,19.0,85,29.55,2.5,NNW,10.4,-,0.00,Snow,Light Snow,340,2014-02-14 01:53:00
9:02 PM,23.0,18.0,81,29.47,3.0,NNW,10.4,-,0.00,Snow,Light Snow,340,2014-02-14 02:02:00
9:13 PM,23.0,18.0,81,29.47,2.0,NNW,9.2,-,0.00,Snow,Light Snow,340,2014-02-14 02:13:00
9:22 PM,21.9,18.0,85,29.46,1.5,North,8.1,-,0.00,Snow,Light Snow,350,2014-02-14 02:22:00
9:53 PM,21.9,18.0,85,29.54,2.0,NNW,9.2,-,0.00,Snow,Light Snow,340,2014-02-14 02:53:00
9:59 PM,21.9,18.0,85,29.45,1.8,NNW,9.2,-,0.00,Snow,Light Snow,330,2014-02-14 02:59:00
10:07 PM,21.9,18.0,85,29.45,2.5,NNW,8.1,-,0.00,Snow,Light Snow,330,2014-02-14 03:07:00
10:15 PM,21.9,18.0,85,29.45,3.0,NNW,6.9,-,0.00,Snow,Light Snow,330,2014-02-14 03:15:00
10:23 PM,21.9,18.0,85,29.45,4.0,NW,6.9,-,0.00,Snow,Light Snow,320,2014-02-14 03:23:00
10:44 PM,21.0,18.0,88,29.44,6.0,North,3.5,-,0.00,Snow,Light Snow,350,2014-02-14 03:44:00
10:53 PM,21.0,18.0,88,29.51,7.0,NW,5.8,-,0.00,,Overcast,320,2014-02-14 03:53:00
11:34 PM,21.0,17.1,85,29.42,8.0,NW,6.9,-,N/A,,Overcast,320,2014-02-14 04:34:00
11:51 PM,19.4,15.8,86,29.42,8.0,NW,6.9,-,N/A,,Scattered Clouds,310,2014-02-14 04:51:00
11:53 PM,19.9,16.0,85,29.49,8.0,NW,8.1,-,N/A,,Scattered Clouds,310,2014-02-14 04:53:00